GAOFEN 9 DEB, 44600

Orbit data source: Space-Track

GAOFEN 9 DEB, 44600 is space debris in SSO originally from a launch on Mon, 14 Sep 2015 UTC launched from the Jiuquan Satellite Launch Center, China (JSC). Debris objects in space refer to the collection of defunct objects orbiting the Earth. Examples of debris include non-operational satellites, rocket bodies, and fragments generated from explosions, collisions, or faulty payload assembly.

Loading next visibility...
Identifier
44600, 2015-047B
Orbit
SSO
Country
Flag of CNCN / PRC
Related business
Manufacturer
Unknown
Mission
Spacecraft
Bus & Motor
Unknown
Mass
Unknown
Launch date (UTC)
2015-09-14 (11 years ago)
Launch vehicle
Unknown
Launch site
Jiuquan Satellite Launch Center, China (JSC)
Object type
Payload
Rocket body
Debris
Shape & HBR
Unknown shape, 0.1 m
Radar Cross Section
Small (<0.1 m²)

Expand to show TLE details & history
Last TLE update: 3 days ago

TLE from 3 days ago
0 GAOFEN 9 DEB
1 44600U 15047B   26170.26587704  .00003538  00000-0  62671-3 0  9990
2 44600  98.1404  98.0866 0153463  63.6865 298.0007 14.60499101566148
Epoch: 2026-06-19T06:22Z
TLE epoch observation values (Epoch: 2026-06-19T06:22:51.776Z)
Latitude
-0.00001°
Longitude
94.87354°
Altitude
644.917 km
Speed
7.562 km/s
True Right ascension
06h 32m 20s
True Declination
0° 00' 00"
Sunlit
Object was in daylight at epoch
Visualization orbit readout
Latitude
Unknown
Longitude
Unknown
Altitude
Unknown
Speed
Unknown
Apparent Right ascension
Unknown
Apparent Declination
Unknown
Sunlit
N/A
Visualization observer readout
Local Sidereal Time
21:36:20
Azimuth
Unknown
Elevation
Unknown
Doppler factor
Unknown
Orbital elements
Apogee altitude
797.089 km
Perigee altitude
580.191 km
Semi-major axis
7,066.777 km
Eccentricity
0.01535
Inclination
98.1404°
RAAN
98.0866°
Arg. of periapsis
63.6865°
True anomaly
296.43409°
Mean anomaly
298.0007°
Eccentric anomaly
297.21879°
Mean motion
3.65352 °/min
Orbital period
98.54 mins
BSTAR
0.00062671
Loading maneuver chart data...
Computing Atmospheric mass density...
Loading historical data...
Loading historical data...
Loading historical data...
Loading historical data...
Loading historical data...
Loading historical data...
Loading historical data...
Other satellites on launch #47 in the year 2015 (2015-09-14 UTC)

Documentation

Showing up to 5 results
|